COSMOS 2251 DEB, 34007

Orbit data source: Space-Track

COSMOS 2251 DEB, 34007 is space debris in LEO originally from a launch on Wed, 16 Jun 1993 UTC launched from the Plesetsk Missile And Space Complex (PKMTR). The debris from Iridium 33, an American commercial communications satellite, has been tracked extensively since its accidental collision with the defunct Russian satellite Cosmos 2251 in 2009. This event, occurring at high speed in low Earth orbit (LEO), generated thousands of pieces of space debris, significantly increasing the risk of further collisions. The Iridium 33 debris cloud has impacted space traffic management and orbital debris mitigation strategies, making it a subject of ongoing study in space situational awareness.

Loading next visibility...
Identifier
34007, 1993-036GS
Orbit
LEO
Country
Flag of CISCIS
Related business
Manufacturer
Unknown
Mission
Spacecraft
Bus & Motor
Unknown
Mass
Unknown
Launch date (UTC)
1993-06-16 (32 years ago)
Launch vehicle
Unknown
Launch site
Plesetsk Missile And Space Complex (PKMTR)
Object type
Payload
Rocket body
Debris
Shape & HBR
Unknown shape, 0.2 m
Radar Cross Section
Small (<0.1 m²)

Expand to show TLE details & history
Last TLE update: 16 hours ago

TLE from 16 hours ago
0 COSMOS 2251 DEB
1 34007U 93036GS  25309.75663665  .00005750  00000-0  10769-2 0  9990
2 34007  74.0207  58.0623 0046936 202.5470 157.3637 14.64327555885384
Epoch: 2025-11-05T18:09Z
TLE epoch observation values (Epoch: 2025-11-05T18:09:33.406Z)
Latitude
-0.00002°
Longitude
100.44837°
Altitude
712.48 km
Speed
7.483 km/s
True Right ascension
03h 52m 14s
True Declination
0° 00' 00"
Sunlit
Object was in full shadow at epoch
Visualization orbit readout
Latitude
Unknown
Longitude
Unknown
Altitude
Unknown
Speed
Unknown
Apparent Right ascension
Unknown
Apparent Declination
Unknown
Sunlit
N/A
Visualization observer readout
Local Sidereal Time
05:53:58
Azimuth
Unknown
Elevation
Unknown
Doppler factor
Unknown
Orbital elements
Apogee altitude
709.942 km
Perigee altitude
643.716 km
Semi-major axis
7,054.966 km
Eccentricity
0.00469
Inclination
74.0207°
RAAN
58.0623°
Arg. of periapsis
202.547°
True anomaly
157.56959°
Mean anomaly
157.3637°
Eccentric anomaly
157.46676°
Mean motion
3.6627 °/min
Orbital period
98.29 mins
BSTAR
0.0010769
Loading maneuver chart data...
Computing Atmospheric mass density...

Documentation

Showing up to 5 results
|